Home   Weather   Santa Rosa   Past weeks

Flag for USA Past Weather in Santa Rosa, California, USA — Yesterday and Last 2 Weeks

Now
34 °F

Fog.


Feels Like: 30 °F
Forecast: 31 / 55 °F
Wind: 5 mph from North

Location: Santa Rosa Sonoma County Airport

Current Time: Feb 26, 2017 at 2:20:24 am

Latest Report: Feb 26, 2017 at 2:07 am


Visibility: 2 mi

Pressure: 30.01 "Hg

Humidity: 100%

Dew Point: 34 °F

Location of Santa RosaLocation

Past Weather in Santa Rosa — Graph

°F

Santa Rosa Temperature Yesterday

Maximum temperature yesterday: 53 °F (at 1:53 pm)
Minimum temperature yesterday: 34 °F (at 6:53 am)
Average temperature yesterday: 43 °F

High & Low Weather Summary for the Past Weeks

 TemperatureHumidityPressure
High68 °F (Feb 14, 2:53 pm)100% (Feb 12, 2:53 am)30.28 "Hg (Feb 12, 2:53 am)
Low29 °F (Feb 24, 6:53 am)31% (Feb 23, 2:53 pm)29.11 "Hg (Feb 17, 1:53 pm)
Average50 °F84%29.96 "Hg
* Reported Feb 11 12:53 am — Feb 26 12:53 am, Santa Rosa, Weather by CustomWeather, © 2017

Note: Actual official high and low records may vary slightly from our data, if they occured in-between our weather recording intervals... More about our weather records

Advertising

Santa Rosa Weather History for the Previous 24 Hours

Scroll right to see more
 ConditionsComfort  
Time TempWeatherWind HumidityBarometerVisibility
12:53 am
Sun, Feb 26
35 °FClear.5 mph100%30.01 "Hg9 mi
11:53 pm
Sat, Feb 25
37 °FClear.7 mph96%30.03 "Hg10 mi
10:53 pm38 °FClear.7 mph97%30.03 "Hg10 mi
9:53 pm40 °FClear.6 mph97%30.03 "Hg10 mi
8:53 pm43 °FClear.No wind89%30.02 "Hg10 mi
7:53 pm45 °FClear.3 mph82%30.01 "Hg10 mi
6:53 pm48 °FPassing clouds.No wind77%30.01 "Hg10 mi
5:53 pm49 °FPartly sunny.3 mph74%30.01 "Hg10 mi
4:53 pm51 °FOvercast.5 mph63%30.02 "Hg10 mi
3:53 pm52 °FMore clouds than sun.9 mph57%30.03 "Hg10 mi
2:53 pm53 °FBroken clouds.7 mph55%30.03 "Hg10 mi
1:53 pm53 °FScattered clouds.No wind52%30.05 "Hg10 mi
12:53 pm51 °FPartly sunny.No wind63%30.09 "Hg10 mi
11:53 am52 °FBroken clouds.3 mph59%30.11 "Hg10 mi
10:53 am48 °FBroken clouds.No wind68%30.13 "Hg10 mi
9:53 am45 °FScattered clouds.No wind80%30.14 "Hg10 mi
8:53 am40 °FPartly sunny.5 mph89%30.16 "Hg10 mi
7:53 am37 °FPartly sunny.3 mph100%30.16 "Hg10 mi
6:53 am34 °FScattered clouds.6 mph100%30.16 "Hg10 mi
5:53 am35 °FPassing clouds.3 mph100%30.15 "Hg10 mi
4:53 am36 °FClear.5 mph97%30.15 "Hg10 mi
3:53 am37 °FOvercast.3 mph96%30.15 "Hg10 mi
2:53 am38 °FPassing clouds.No wind97%30.16 "Hg10 mi
Weather by CustomWeather, © 2017

See weather overviewHow to use our weather pages